Location: Ajisawe
(8.4333°N, 4.3833°E)
Time: 11:08:20
(UTC+00:00)

Vanguard 2 Rocket - Pass Details

Date: 28 April 2021
Orbit: 553 x 3326 km, 32.9° (Epoch: 07 May)

Event Time Altitude Azimuth Distance (km) Brightness Sun altitude
Rises 10:57:13 0° 278° (W) 4,946 10.6 78.0°
Reaches altitude 10° 11:00:31 10° 288° (WNW) 4,316 10.4 78.7°
Maximum altitude 11:11:42 34° 349° (NNW) 3,741 10.7 80.9°
Drops below altitude 10° 11:27:56 10° 47° (NE) 6,186 11.4 83.4°
Sets 11:34:02 0° 56° (NE) 7,307 11.6 83.9°
